PSLV R/B

Satellite information

Favourite Embed

Satellite Type and Status

ROCKET BODYIN ORBIT

Key statistics

Satellite PSLV R/B at a glance.

Uptime

7528

Days in orbit

Revolutions

≈ 14.8

Per day

Orbit

SSO

Sun Synchronous Orbit

Inclination

97.9

Latest

Satellite identification and parameters

Extended collection of information and parameters for PSLV R/B.

Object identification

Identified? True

Debris? False

Object name: PSLV R/B

International designator: 2005-017C

Object number (NORAD): 28651

Object ID (CCSDS): 28651

Country: INDIA (IND)

Current information (Y/N): Y

RCS size: LARGE

Orbital parameters

Period: 97.379 minutes

Inclination: 97.8789 deg

SMA: 7011.366 km

Apoapsis: 680.116 km

Periapsis: 586.345 km

RAAN: 248.6672 deg

Eccentricy: 0.00668707

Argument of periapsis: 190.0687 deg

Mean anomaly: 169.919 deg

Mean motion: 14.78763928 rev/day

Mean motion (dot): 0.00001721 rev/day2

B* drag term: 0.00023287562 1/REarth

Two-line elements (TLE)

Creation date: Dec. 12, 2025, 10:14 a.m.

Reference frame: TEME

Reference center: EARTH

Epoch: Dec. 12, 2025, 6:50 a.m. UTC

TLE line 0: 0 PSLV R/B

TLE line 1: 1 28651U 05017C 25346.28485785 .00001721 00000-0 23288-3 0 9999

TLE line 2: 2 28651 97.8789 248.6672 0066871 190.0687 169.9190 14.78763928107420

Live tracking on map

Real-time ground track for satellite PSLV R/B.

In-orbit conjunctions

A list of the most updated potential collisions computed for object PSLV R/B.

Target Orbit TCA Probability of collision Miss distance Type
FENGYUN 1C DEB SSO 2025-09-09 15:21:20 0.0003495717 872.0 (m) DEBRIS
CZ-6A DEB SSO 2025-08-21 08:20:32 0.0103666 23.0 (m) DEBRIS
COSMOS 2251 DEB LEO 2025-04-15 15:57:26 0.0002627967 217.0 (m) DEBRIS
DMSP 5D-2 F11 DEB SSO 2024-12-16 08:08:18 0.0002490674 285.0 (m) DEBRIS
LARETS SSO 2024-12-13 15:42:54 0.0008761235 961.0 (m) PAYLOAD

Associated space launch

Cartosat-1 or IRS-P5 is a stereoscopic Earth observation satellite in a sun-synchronous orbit, and the first one of the Cartosat series of satellites. The eleventh satellite of ISRO in IRS series.

PSLV R/B was lifted into orbit during the mission ‘PSLV | Cartosat-1’, on board a PSLV space rocket.

The launch took place on May 5, 2005, 4:45 a.m. from Satish Dhawan Space Centre Second Launch Pad.

For more information about the launch, click the button.

Launch to space PSLV | Cartosat-1
PSLV | Cartosat-1

Agency: N/A

Status: Launch Successful

Launch date: May 5, 2005, 4:45 a.m. UTC

Rocket: PSLV

Launch pad: Satish Dhawan Space Centre Second Launch Pad

Location: Satish Dhawan Space Centre, India

...

Latest news about this satellite

There are no fresh news available about this satellite. Check back as we update our databases every day.


Newsletter sign-up

Weekly statistics, charts and insights to help you stay on top of the space industry.